RYR2256 EGKK-EHAM

Flight info

Callsign RYR2256
Flight time N/A
Altitude 27000
Route FRANE DCT REDFA
Aircraft B38M/M-SDE1FGHILORVWXY/HB1

Departure

Time 2026-04-14 15:32
Airport London Gatwick Airport (EGKK)

Arrival

Time N/A
Airport Amsterdam Airport Schiphol (EHAM)
Time Latitude Longitude Altitude Speed Heading
2026-04-14 14:37 51.15587 -0.16905 206 ft 0 kts 167°
2026-04-14 15:04 51.15590 -0.16906 206 ft 2 kts 167°
2026-04-14 15:04 51.15608 -0.16911 208 ft 3 kts 174°
2026-04-14 15:04 51.15628 -0.16913 212 ft 3 kts 184°
2026-04-14 15:04 51.15648 -0.16907 207 ft 3 kts 202°
2026-04-14 15:05 51.15663 -0.16892 216 ft 3 kts 238°
2026-04-14 15:05 51.15667 -0.16879 214 ft 0 kts 258°
2026-04-14 15:11 51.15666 -0.16880 206 ft 1 kts 258°
2026-04-14 15:12 51.15663 -0.16907 217 ft 4 kts 258°
2026-04-14 15:12 51.15655 -0.16966 208 ft 7 kts 258°
2026-04-14 15:12 51.15643 -0.17050 210 ft 9 kts 257°
2026-04-14 15:12 51.15629 -0.17157 211 ft 11 kts 257°
2026-04-14 15:13 51.15610 -0.17279 209 ft 11 kts 253°
2026-04-14 15:13 51.15542 -0.17310 214 ft 12 kts 167°
2026-04-14 15:13 51.15452 -0.17279 207 ft 14 kts 168°
2026-04-14 15:13 51.15347 -0.17242 216 ft 17 kts 168°
2026-04-14 15:14 51.15268 -0.17201 211 ft 12 kts 144°
2026-04-14 15:14 51.15256 -0.17161 207 ft 3 kts 75°
2026-04-14 15:14 51.15264 -0.17107 214 ft 7 kts 78°
2026-04-14 15:14 51.15279 -0.16998 210 ft 13 kts 77°
2026-04-14 15:15 51.15293 -0.16863 204 ft 12 kts 101°
2026-04-14 15:15 51.15277 -0.16831 205 ft 0 kts 148°
2026-04-14 15:29 51.15263 -0.16821 212 ft 5 kts 160°
2026-04-14 15:29 51.15236 -0.16810 212 ft 0 kts 167°
2026-04-14 15:30 51.15235 -0.16810 213 ft 1 kts 167°
2026-04-14 15:30 51.15214 -0.16803 212 ft 5 kts 167°
2026-04-14 15:30 51.15162 -0.16788 207 ft 10 kts 174°
2026-04-14 15:31 51.15124 -0.16794 201 ft 5 kts 224°
2026-04-14 15:31 51.15111 -0.16853 207 ft 7 kts 256°
2026-04-14 15:31 51.15081 -0.17066 207 ft 50 kts 258°
2026-04-14 15:31 51.14956 -0.17963 217 ft 114 kts 257°
2026-04-14 15:32 51.14760 -0.19456 214 ft 162 kts 256°
2026-04-14 15:32 51.14596 -0.21210 801 ft 164 kts 258°
2026-04-14 15:32 51.14441 -0.23086 1376 ft 178 kts 255°
2026-04-14 15:32 51.14236 -0.25128 1936 ft 194 kts 254°
2026-04-14 15:33 51.14012 -0.27251 2864 ft 195 kts 254°
2026-04-14 15:33 51.13931 -0.29386 3887 ft 191 kts 283°
2026-04-14 15:33 51.14869 -0.30763 4862 ft 201 kts 345°
2026-04-14 15:33 51.16353 -0.30824 4842 ft 228 kts
2026-04-14 15:34 51.17868 -0.29844 5255 ft 246 kts 43°
2026-04-14 15:34 51.18815 -0.27587 5491 ft 257 kts 73°
2026-04-14 15:34 51.19414 -0.24802 5540 ft 274 kts 72°
2026-04-14 15:34 51.20126 -0.21927 5633 ft 282 kts 71°
2026-04-14 15:35 51.20661 -0.18897 5791 ft 287 kts 84°
2026-04-14 15:35 51.21007 -0.15764 6689 ft 287 kts 83°
2026-04-14 15:35 51.21390 -0.12609 7515 ft 292 kts 82°
2026-04-14 15:35 51.21790 -0.09427 8405 ft 294 kts 81°
2026-04-14 15:36 51.22199 -0.06213 9273 ft 297 kts 81°
2026-04-14 15:36 51.22617 -0.02971 10145 ft 300 kts 81°
2026-04-14 15:36 51.23039 0.00304 10611 ft 314 kts 81°
2026-04-14 15:36 51.23494 0.03823 10946 ft 334 kts 80°
2026-04-14 15:37 51.23974 0.07531 11434 ft 348 kts 79°